Stündliche Wetter Abdukarim

Heute, 24 Juni, Donnerstag

Zeit Temperatur Niederschläge Wind Luftdruck Luftfeuchtigkeit
00:00 +23°C° 0 mm 2 m/S 696 mmHg 24%
01:00 +21°C° 0 mm 2 m/S 696 mmHg 25%
02:00 +21°C° 0 mm 2 m/S 695 mmHg 26%
03:00 +20°C° 0 mm 2 m/S 695 mmHg 27%
04:00 +20°C° 0 mm 2 m/S 695 mmHg 28%
05:00 +20°C° 0 mm 2 m/S 695 mmHg 28%
06:00 +23°C° 0 mm 2 m/S 695 mmHg 26%
07:00 +25°C° 0 mm 3 m/S 695 mmHg 23%
08:00 +27°C° 0 mm 3 m/S 696 mmHg 20%
09:00 +29°C° 0 mm 4 m/S 696 mmHg 18%
10:00 +30°C° 0 mm 5 m/S 696 mmHg 17%
11:00 +32°C° 0 mm 5 m/S 696 mmHg 15%
12:00 +33°C° 0 mm 5 m/S 696 mmHg 14%
13:00 +34°C° 0 mm 5 m/S 696 mmHg 14%
14:00 +35°C° 0 mm 5 m/S 696 mmHg 13%
15:00 +35°C° 0 mm 5 m/S 696 mmHg 13%
16:00 +35°C° 0 mm 5 m/S 695 mmHg 12%
17:00 +35°C° 0 mm 5 m/S 695 mmHg 12%
18:00 +33°C° 0 mm 5 m/S 695 mmHg 14%
19:00 +30°C° 0 mm 4 m/S 695 mmHg 16%
20:00 +28°C° 0 mm 4 m/S 695 mmHg 18%
21:00 +28°C° 0 mm 3 m/S 694 mmHg 19%
22:00 +27°C° 0 mm 3 m/S 694 mmHg 20%
23:00 +26°C° 0 mm 2 m/S 694 mmHg 20%

Morgen, 25 Juni, Freitag

Zeit Temperatur Niederschläge Wind Luftdruck Luftfeuchtigkeit
00:00 +25°C° 0 mm 2 m/S 694 mmHg 23%
01:00 +25°C° 0 mm 2 m/S 694 mmHg 25%
02:00 +24°C° 0 mm 2 m/S 694 mmHg 27%
03:00 +23°C° 0 mm 2 m/S 694 mmHg 30%
04:00 +23°C° 0 mm 2 m/S 694 mmHg 33%
05:00 +21°C° 0 mm 2 m/S 693 mmHg 36%
06:00 +24°C° 0 mm 3 m/S 694 mmHg 35%
07:00 +26°C° 0 mm 3 m/S 694 mmHg 35%
08:00 +27°C° 0 mm 4 m/S 694 mmHg 34%
09:00 +29°C° 0 mm 5 m/S 694 mmHg 31%
10:00 +30°C° 0 mm 5 m/S 694 mmHg 29%
11:00 +32°C° 0 mm 6 m/S 695 mmHg 27%
12:00 +33°C° 0 mm 6 m/S 694 mmHg 25%
13:00 +34°C° 0 mm 6 m/S 694 mmHg 24%
14:00 +34°C° 0 mm 6 m/S 694 mmHg 22%
15:00 +34°C° 0 mm 6 m/S 694 mmHg 22%
16:00 +34°C° 0 mm 6 m/S 694 mmHg 21%
17:00 +34°C° 0 mm 5 m/S 694 mmHg 20%
18:00 +32°C° 0 mm 5 m/S 693 mmHg 21%
19:00 +30°C° 0 mm 5 m/S 693 mmHg 21%
20:00 +28°C° 0 mm 5 m/S 693 mmHg 21%
21:00 +26°C° 0 mm 4 m/S 693 mmHg 22%
22:00 +25°C° 0 mm 4 m/S 693 mmHg 22%
23:00 +23°C° 0 mm 4 m/S 693 mmHg 23%

übermorgen, 26 Juni, Samstag

Zeit Temperatur Niederschläge Wind Luftdruck Luftfeuchtigkeit
00:00 +22°C° 0 mm 3 m/S 693 mmHg 24%
01:00 +21°C° 0 mm 3 m/S 693 mmHg 24%
02:00 +21°C° 0 mm 3 m/S 692 mmHg 25%
03:00 +20°C° 0 mm 3 m/S 692 mmHg 26%
04:00 +20°C° 0 mm 3 m/S 692 mmHg 28%
05:00 +19°C° 0 mm 2 m/S 692 mmHg 29%
06:00 +21°C° 0 mm 3 m/S 693 mmHg 27%
07:00 +24°C° 0 mm 3 m/S 693 mmHg 25%
08:00 +26°C° 0 mm 4 m/S 693 mmHg 23%
09:00 +27°C° 0 mm 5 m/S 694 mmHg 21%
10:00 +29°C° 0 mm 5 m/S 694 mmHg 19%
11:00 +30°C° 0 mm 6 m/S 694 mmHg 17%
12:00 +32°C° 0 mm 6 m/S 694 mmHg 16%
13:00 +33°C° 0 mm 6 m/S 694 mmHg 15%
14:00 +34°C° 0 mm 6 m/S 694 mmHg 14%
15:00 +34°C° 0 mm 6 m/S 693 mmHg 13%
16:00 +34°C° 0 mm 6 m/S 693 mmHg 13%
17:00 +34°C° 0 mm 6 m/S 693 mmHg 13%
18:00 +33°C° 0 mm 5 m/S 693 mmHg 15%
19:00 +30°C° 0 mm 4 m/S 693 mmHg 16%
20:00 +28°C° 0 mm 4 m/S 693 mmHg 18%
21:00 +27°C° 0 mm 3 m/S 693 mmHg 19%
22:00 +26°C° 0 mm 3 m/S 693 mmHg 20%
23:00 +25°C° 0 mm 2 m/S 693 mmHg 21%

27 Juni, Sonntag

Zeit Temperatur Niederschläge Wind Luftdruck Luftfeuchtigkeit
00:00 +25°C° 0 mm 2 m/S 693 mmHg 22%
01:00 +24°C° 0 mm 2 m/S 692 mmHg 23%
02:00 +23°C° 0 mm 2 m/S 692 mmHg 24%
03:00 +23°C° 0 mm 2 m/S 692 mmHg 25%
04:00 +23°C° 0 mm 2 m/S 692 mmHg 27%
05:00 +23°C° 0 mm 2 m/S 692 mmHg 28%
06:00 +25°C° 0 mm 2 m/S 693 mmHg 25%
07:00 +27°C° 0 mm 2 m/S 693 mmHg 22%
08:00 +29°C° 0 mm 3 m/S 694 mmHg 20%
09:00 +30°C° 0 mm 3 m/S 694 mmHg 18%
10:00 +33°C° 0 mm 3 m/S 694 mmHg 16%
11:00 +35°C° 0 mm 4 m/S 694 mmHg 15%
12:00 +36°C° 0 mm 4 m/S 694 mmHg 14%
13:00 +37°C° 0 mm 4 m/S 694 mmHg 13%
14:00 +38°C° 0 mm 4 m/S 694 mmHg 12%
15:00 +38°C° 0 mm 4 m/S 694 mmHg 12%
16:00 +39°C° 0 mm 5 m/S 694 mmHg 13%
17:00 +39°C° 0 mm 5 m/S 694 mmHg 13%
18:00 +36°C° 0 mm 4 m/S 694 mmHg 15%
19:00 +34°C° 0 mm 3 m/S 693 mmHg 18%
20:00 +31°C° 0 mm 3 m/S 693 mmHg 21%
21:00 +30°C° 0 mm 2 m/S 693 mmHg 23%
22:00 +29°C° 0 mm 2 m/S 693 mmHg 25%
23:00 +28°C° 0 mm 2 m/S 693 mmHg 27%

28 Juni, Montag

Zeit Temperatur Niederschläge Wind Luftdruck Luftfeuchtigkeit
00:00 +27°C° 0 mm 2 m/S 693 mmHg 27%
01:00 +27°C° 0 mm 2 m/S 692 mmHg 27%
02:00 +26°C° 0 mm 1 m/S 692 mmHg 27%
03:00 +26°C° 0 mm 1 m/S 692 mmHg 27%
04:00 +26°C° 0 mm 1 m/S 692 mmHg 28%
05:00 +25°C° 0 mm 1 m/S 693 mmHg 28%
06:00 +27°C° 0 mm 2 m/S 693 mmHg 25%
07:00 +29°C° 0 mm 2 m/S 693 mmHg 22%
08:00 +31°C° 0 mm 2 m/S 694 mmHg 19%
09:00 +34°C° 0 mm 2 m/S 694 mmHg 17%
10:00 +36°C° 0 mm 3 m/S 694 mmHg 15%
11:00 +37°C° 0 mm 4 m/S 694 mmHg 13%
12:00 +38°C° 0 mm 4 m/S 694 mmHg 12%
13:00 +40°C° 0 mm 4 m/S 694 mmHg 11%
14:00 +41°C° 0 mm 4 m/S 693 mmHg 10%
15:00 +41°C° 0 mm 4 m/S 693 mmHg 10%
16:00 +41°C° 0 mm 4 m/S 693 mmHg 10%
17:00 +41°C° 0 mm 4 m/S 693 mmHg 10%
18:00 +37°C° 0 mm 3 m/S 693 mmHg 12%
19:00 +35°C° 0 mm 2 m/S 693 mmHg 14%
20:00 +32°C° 0 mm 2 m/S 692 mmHg 16%
21:00 +31°C° 0 mm 2 m/S 693 mmHg 16%
22:00 +30°C° 0 mm 2 m/S 693 mmHg 17%
23:00 +29°C° 0 mm 2 m/S 693 mmHg 17%

29 Juni, Dienstag

Zeit Temperatur Niederschläge Wind Luftdruck Luftfeuchtigkeit
00:00 +28°C° 0 mm 2 m/S 693 mmHg 17%
01:00 +28°C° 0 mm 2 m/S 693 mmHg 17%
02:00 +27°C° 0 mm 2 m/S 692 mmHg 18%
03:00 +27°C° 0 mm 2 m/S 692 mmHg 18%
04:00 +26°C° 0 mm 2 m/S 692 mmHg 18%
05:00 +26°C° 0 mm 2 m/S 692 mmHg 18%
06:00 +29°C° 0 mm 2 m/S 693 mmHg 16%
07:00 +31°C° 0 mm 2 m/S 693 mmHg 14%
08:00 +34°C° 0 mm 2 m/S 694 mmHg 12%
09:00 +36°C° 0 mm 2 m/S 694 mmHg 11%
10:00 +37°C° 0 mm 3 m/S 694 mmHg 10%
11:00 +40°C° 0 mm 4 m/S 694 mmHg 9%
12:00 +40°C° 0 mm 4 m/S 694 mmHg 9%
13:00 +41°C° 0 mm 4 m/S 694 mmHg 8%
14:00 +41°C° 0 mm 5 m/S 694 mmHg 8%
15:00 +41°C° 0 mm 5 m/S 694 mmHg 9%
16:00 +41°C° 0 mm 5 m/S 693 mmHg 9%
17:00 +41°C° 0 mm 4 m/S 693 mmHg 10%
18:00 +38°C° 0 mm 4 m/S 693 mmHg 12%
19:00 +36°C° 0 mm 3 m/S 693 mmHg 15%
20:00 +34°C° 0 mm 2 m/S 693 mmHg 17%
21:00 +33°C° 0 mm 3 m/S 693 mmHg 19%
22:00 +30°C° 0 mm 3 m/S 693 mmHg 21%
23:00 +29°C° 0 mm 3 m/S 692 mmHg 23%
Mehr zeigen

Wir brauchen deine Erlaubnis

Meteoprog und unser Service Anbieter werden persönliche Daten aufbewahren, so wie Cookies, Geräte Bezeichnung oder ähnliche Technologien von deinem Gerät und Prozess, so wie Persönliche Daten Inhalte und Werbungen, genauso wie social Media und den Verkehr zu analysieren.

  • Aufbewahrung und/oder Zugang zu deiner Geräte Informationen.

    Cookies, Geräte Bezeichnung oder andere Informationen, können aufbewahrt oder Zugang zu deinem Gerät erhalten, für den Grund, der oben angegeben wird.

  • Personalisierte Werbung und Inhalte, Messungen, Einblick in das Publikum und Produkt Entwicklung.

    Werbungen und Inhalte können personalisiert werden, basierend auf ein Profil. Mehr Daten können besser personalisierte Werbungen und Inhalte hinzufügen. Werbung und Inhalte können gezeigt und gemessen werden. Einblicke über das Publikum, welche die Werbung gesehen haben und den Inhalt, können abgeleitet werden. So wie Daten können genutzt werden, um es zu verbessern oder die Benutzer Erfahrung zu verbessern das System und die Software.

Wenn du “Ich stimme zu” klickst, erlaubst du uns, die Cookies zu benutzen die Geräte Bezeichnung, den Web oder ähnliche Technologien zu benutzen. Deine Settings, können in deinem Gerät bei deinem Browser geändert werden.

Für den bestimmten Zweck, berechtigten Interessen beruhen darauf, mehr als auf den Inhalt. Du kannst mehr darüber in unseren Privaten und Cookie Politik lesen.